Simultaneous Nadir Overpasses (SNOs) Predictions

Prediction of SNOs between AURA and NPP Satellite Orbit:

Table of predicted SNOs for the next 14.0 days since TLE Epoch: 3/11/2023
Index Date (AURA) Time (AURA) Lat,Lon (AURA) SZA (AURA ) Date (NPP) Time (NPP) Lat,Lon (NPP) SZA (NPP ) Distance(km) Time Diff (sec)
1 03/12/2023 02:52:53 79.43, 33.84 96.22 03/12/2023 02:52:41 79.44, 33.90 96.21 1.23 12
2 03/12/2023 03:42:15 -79.62,-157.21 84.08 03/12/2023 03:43:21 -79.61,-157.31 84.10 2.23 66
3 03/14/2023 18:19:42 -79.23, -19.16 84.56 03/14/2023 18:19:02 -79.23, -19.29 84.50 2.81 40
4 03/14/2023 19:09:00 79.52, 150.42 95.02 03/14/2023 19:09:38 79.51, 150.30 95.01 2.58 38
5 03/17/2023 09:46:24 79.15, -71.34 94.50 03/17/2023 09:45:18 79.14, -71.47 94.58 3.03 66
6 03/17/2023 10:35:43 -79.46, 98.36 85.97 03/17/2023 10:35:54 -79.46, 98.34 85.97 0.38 11
7 03/20/2023 02:02:23 79.37, 46.07 93.11 03/20/2023 02:02:10 79.37, 46.05 93.12 0.36 13
8 03/20/2023 02:51:42 -79.67,-144.15 87.36 03/20/2023 02:52:46 -79.68,-144.04 87.43 2.45 64
9 03/22/2023 17:29:00 -79.33, -5.83 87.90 03/22/2023 17:28:24 -79.34, -5.77 87.89 1.47 36



Historial Predications of SNOs between AURA and NPP
